Home   Weather   Slough   Past weeks

Flag for United Kingdom Past Weather in Slough, England, United Kingdom — Yesterday and Last 2 Weeks

Now
55 °F

Sprinkles. Scattered clouds.


Feels Like: 54 °F
Forecast: 44 / 60 °F
Wind: 7 mph from South

Location: London City Airport

Current Time: Oct 1, 2016 at 1:16:09 PM

Latest Report: Oct 1, 2016 at 12:20 PM


Visibility: N/A

Pressure: 29.71 "Hg

Humidity: 82%

Dew Point: 50 °F

Location of SloughLocation

Past Weather in Slough — Graph

°F

Slough Temperature Yesterday

Maximum temperature yesterday: 66 °F (at 2:20 PM)
Minimum temperature yesterday: 55 °F (at 2:50 AM)
Average temperature yesterday: 60 °F

High & Low Weather Summary for the Past Weeks

 TemperatureHumidityPressure
High75 °F (Sep 28, 3:50 PM)94% (Sep 17, 11:20 PM)30.30 "Hg (Sep 17, 11:20 PM)
Low54 °F (Sep 23, 5:20 AM)38% (Sep 23, 1:50 PM)29.71 "Hg (Oct 1, 6:50 AM)
Average62 °F71%30.08 "Hg
* Reported Sep 16 12:50 PM — Oct 1 12:20 PM, Slough, Weather by CustomWeather, © 2016

Note: Actual official high and low records may vary slightly from our data, if they occured in-between our weather recording intervals... More about our weather records

Advertising

Slough Weather History for the Previous 24 Hours

Scroll right to see more
 ConditionsComfort  
Time TempWeatherWind HumidityBarometerVisibility
12:20 PM
Sat, Oct 1
55 °FSprinkles. Scattered clouds.7 mph82%29.71 "HgN/A
11:50 AM55 °FLight rain. Partly sunny.7 mph82%29.71 "HgN/A
10:50 AM57 °FLight rain. Partly sunny.3 mph82%29.71 "HgN/A
10:20 AM57 °FBroken clouds.6 mph82%29.71 "HgN/A
9:50 AM57 °FScattered showers. Scattered clouds.3 mph82%29.71 "HgN/A
9:20 AM57 °FScattered clouds.2 mph82%29.71 "HgN/A
8:50 AM57 °FSunny.2 mph82%29.71 "Hg10 mi
8:20 AM54 °FSunny.3 mph94%29.71 "Hg10 mi
7:50 AM54 °FSunny.3 mph94%29.71 "Hg10 mi
7:20 AM54 °FSunny.No wind94%29.71 "Hg10 mi
6:50 AM55 °FClear.2 mph88%29.71 "Hg10 mi
6:20 AM55 °FClear.3 mph88%29.74 "HgN/A
5:50 AM55 °FSprinkles. Overcast.3 mph88%29.74 "HgN/A
5:20 AM55 °FCool.5 mph88%29.74 "HgN/A
4:50 AM55 °FPassing clouds.3 mph88%29.74 "HgN/A
4:20 AM55 °FPassing clouds.5 mph88%29.74 "HgN/A
3:50 AM55 °FSprinkles. Passing clouds.2 mph88%29.77 "HgN/A
3:20 AM55 °FSprinkles. Passing clouds.No wind82%29.77 "HgN/A
2:50 AM55 °FSprinkles. Passing clouds.No wind82%29.77 "HgN/A
2:20 AM55 °FLight rain. Passing clouds.3 mph82%29.77 "HgN/A
1:50 AM55 °FPassing clouds.5 mph82%29.80 "HgN/A
1:20 AM55 °FPassing clouds.5 mph82%29.80 "HgN/A
12:50 AM55 °FCool.5 mph82%29.80 "HgN/A
12:20 AM55 °FCool.3 mph82%29.80 "HgN/A
11:50 PM
Fri, Sep 30
55 °FCool.5 mph82%29.83 "HgN/A
11:20 PM55 °FCool.5 mph88%29.83 "HgN/A
10:50 PM57 °FCool.5 mph82%29.83 "HgN/A
10:20 PM57 °FCool.5 mph82%29.86 "HgN/A
9:50 PM57 °FCool.5 mph82%29.86 "HgN/A
8:50 PM59 °FPassing clouds.5 mph77%29.86 "HgN/A
8:20 PM57 °FRain showers. Passing clouds.12 mph82%29.86 "HgN/A
7:50 PM61 °FClear.8 mph68%29.86 "Hg10 mi
7:20 PM61 °FPassing clouds.8 mph68%29.86 "HgN/A
6:50 PM63 °FPassing clouds.9 mph59%29.86 "HgN/A
6:20 PM63 °FPassing clouds.14 mph56%29.86 "HgN/A
5:50 PM64 °FPassing clouds.12 mph52%29.86 "HgN/A
5:20 PM64 °FPassing clouds.14 mph52%29.86 "HgN/A
4:50 PM66 °FScattered clouds.14 mph49%29.86 "HgN/A
3:50 PM66 °FPassing clouds.15 mph52%29.86 "HgN/A
3:20 PM64 °FPassing clouds.15 mph52%29.86 "HgN/A
2:50 PM66 °FScattered clouds.16 mph49%29.86 "HgN/A
2:20 PM66 °FPassing clouds.10 mph49%29.89 "HgN/A
1:50 PM64 °FPassing clouds.14 mph52%29.89 "HgN/A
1:20 PM64 °FPassing clouds.12 mph52%29.89 "HgN/A
Weather by CustomWeather, © 2016

See weather overviewHow to use our weather pages